Regional Weather Roundup
Issued by NWS

Home | Current Version | Previous Version | Graphics & Text | Print | Product List | Glossary On
Versions: 1 2 3 4 5 6 7 8 9 10 11 12 13 14 15 16 17 18 19 20 21 22 23 24 25 26 27 28 29 30 31 32 33 34 35 36 37 38 39 40 41 42 43 44 45 46 47 48 49 50
000
ASUS43 KLMK 170402
RWRKY
KENTUCKY REGIONAL WEATHER ROUNDUP
NATIONAL WEATHER SERVICE LOUISVILLE KY
1200 AM EDT WED SEP 17 2014

NOTE "FAIR" INDICATES FEW OR NO CLOUDS BELOW 12,000 FEET
WITH NO SIGNIFICANT WEATHER AND/OR OBSTRUCTIONS TO VISIBILITY.

KYZ001>023-026-027-061>063-070>075-170500-
WESTERN AND SOUTH CENTRAL KENTUCKY

CITY           SKY/WX    TMP DP  RH WIND       PRES   REMARKS
PADUCAH        CLEAR     54  51  90 CALM      30.10R
HENDERSON      CLEAR     52  46  82 CALM      30.11S
OWENSBORO      CLEAR     56  53  89 NE3       30.11S
HOPKINSVILLE   CLEAR     57  55  93 N5        30.09S
BOWLING GREEN  CLEAR     58  54  86 NE5       30.09R
GLASGOW        CLEAR     57  54  89 NE3       30.09S
$$

KYZ024-025-028>034-038-045-046-053-170500-
NORTH CENTRAL KENTUCKY

CITY           SKY/WX    TMP DP  RH WIND       PRES   REMARKS
LOUISVILLE/SDF CLEAR     57  52  83 VRB3      30.11R
LOUISVILLE/LOU CLEAR     56  52  86 CALM      30.12R
FORT KNOX      CLEAR     53  51  94 N3        30.10R
$$

KYZ035>037-039>044-047>052-055>060-089>105-170500-
NORTHEAST KENTUCKY

CITY           SKY/WX    TMP DP  RH WIND       PRES   REMARKS
LEXINGTON      CLEAR     54  50  86 NE5       30.11R
COVINGTON      MOCLDY    57  50  77 N5        30.11S
FRANKFORT      CLEAR     51  50  96 CALM      30.10S
$$

KYZ054-064>069-076>088-106>120-170500-
SOUTHEAST KENTUCKY

CITY           SKY/WX    TMP DP  RH WIND       PRES   REMARKS
JACKSON        CLOUDY    57  55  93 CALM      30.10R FOG
LONDON         PTCLDY    58  55  90 N3        30.09S
SOMERSET       NOT AVBL
MIDDLESBORO    PTCLDY    62  58  86 E3        30.07S
MONTICELLO     CLEAR     55  55 100 CALM      30.10S FOG
$$




USA.gov is the U.S. government's official web portal to all federal, state and local government web resources and services.